SKW3707 KSEA-KSFO

Flight info

Callsign SKW3707
Flight time N/A
Altitude 37000
Route HAROB6 ERAVE Q1 ETCHY MLBEC BDEGA4
Aircraft E170/M-SDE3GILORVW/S

Departure

Time 2026-05-04 20:57
Airport Seattle–Tacoma International Airport (KSEA)

Arrival

Time N/A
Airport San Francisco International Airport (KSFO)
Time Latitude Longitude Altitude Speed Heading
2026-05-04 20:38 47.44533 -122.30461 391 ft 0 kts 92°
2026-05-04 20:47 47.44533 -122.30482 391 ft 4 kts 82°
2026-05-04 20:47 47.44523 -122.30518 391 ft 4 kts 53°
2026-05-04 20:48 47.44503 -122.30542 391 ft 4 kts 17°
2026-05-04 20:48 47.44492 -122.30544 391 ft 2 kts
2026-05-04 20:50 47.44493 -122.30544 391 ft 1 kts
2026-05-04 20:50 47.44508 -122.30550 391 ft 5 kts 329°
2026-05-04 20:51 47.44559 -122.30600 391 ft 13 kts 333°
2026-05-04 20:51 47.44668 -122.30629 391 ft 20 kts
2026-05-04 20:51 47.44826 -122.30629 391 ft 26 kts
2026-05-04 20:51 47.45006 -122.30627 391 ft 21 kts
2026-05-04 20:52 47.45147 -122.30626 391 ft 20 kts
2026-05-04 20:52 47.45239 -122.30622 391 ft 12 kts
2026-05-04 20:52 47.45333 -122.30620 391 ft 15 kts 359°
2026-05-04 20:52 47.45456 -122.30625 391 ft 20 kts
2026-05-04 20:53 47.45606 -122.30621 391 ft 24 kts
2026-05-04 20:53 47.45773 -122.30619 391 ft 23 kts
2026-05-04 20:53 47.45933 -122.30618 391 ft 20 kts
2026-05-04 20:53 47.46067 -122.30617 391 ft 19 kts
2026-05-04 20:54 47.46182 -122.30616 391 ft 16 kts
2026-05-04 20:54 47.46284 -122.30615 392 ft 12 kts
2026-05-04 20:54 47.46355 -122.30625 392 ft 7 kts 330°
2026-05-04 20:54 47.46367 -122.30640 392 ft 3 kts 310°
2026-05-04 20:56 47.46380 -122.30684 392 ft 11 kts 279°
2026-05-04 20:56 47.46369 -122.30786 392 ft 5 kts 204°
2026-05-04 20:56 47.46236 -122.30783 392 ft 53 kts 181°
2026-05-04 20:56 47.45586 -122.30788 392 ft 131 kts 180°
2026-05-04 20:57 47.44508 -122.30804 777 ft 170 kts 181°
2026-05-04 20:57 47.43262 -122.30814 1548 ft 192 kts 183°
2026-05-04 20:57 47.41859 -122.30826 2364 ft 206 kts 182°
2026-05-04 20:57 47.40387 -122.30839 3261 ft 217 kts 183°
2026-05-04 20:58 47.38800 -122.30897 3964 ft 248 kts 183°
2026-05-04 20:58 47.36973 -122.30960 4617 ft 276 kts 183°
2026-05-04 20:58 47.35023 -122.31111 5735 ft 284 kts 189°
2026-05-04 20:58 47.33110 -122.31897 6915 ft 288 kts 207°
2026-05-04 20:59 47.31604 -122.33806 7955 ft 290 kts 237°
2026-05-04 20:59 47.30895 -122.36545 8939 ft 289 kts 266°
2026-05-04 20:59 47.30845 -122.39513 10004 ft 291 kts 271°
2026-05-04 20:59 47.30798 -122.42596 10587 ft 309 kts 272°
2026-05-04 21:00 47.30835 -122.45813 11471 ft 317 kts 273°
2026-05-04 21:00 47.30873 -122.49087 12448 ft 321 kts 273°
2026-05-04 21:00 47.30950 -122.52396 13480 ft 325 kts 275°
2026-05-04 21:00 47.31041 -122.55754 14464 ft 330 kts 275°
2026-05-04 21:01 47.31131 -122.59120 15470 ft 334 kts 275°
2026-05-04 21:01 47.31223 -122.62560 16432 ft 338 kts 275°
2026-05-04 21:01 47.31313 -122.66052 17346 ft 343 kts 275°
2026-05-04 21:01 47.31403 -122.69589 18224 ft 348 kts 275°
2026-05-04 21:02 47.31494 -122.73174 18993 ft 351 kts 275°
2026-05-04 21:02 47.31379 -122.76807 19732 ft 360 kts 263°
2026-05-04 21:02 47.30698 -122.80405 20513 ft 368 kts 254°
2026-05-04 21:02 47.29761 -122.83944 21212 ft 375 kts 251°
2026-05-04 21:03 47.28767 -122.87527 21922 ft 379 kts 251°
2026-05-04 21:03 47.27801 -122.91113 22590 ft 383 kts 252°
2026-05-04 21:03 47.26823 -122.94788 23256 ft 388 kts 252°
2026-05-04 21:03 47.25831 -122.98511 23833 ft 392 kts 252°
2026-05-04 21:04 47.24752 -123.02227 24367 ft 398 kts 245°
2026-05-04 21:04 47.23087 -123.05536 24913 ft 409 kts 226°
2026-05-04 21:04 47.20845 -123.08154 25469 ft 415 kts 217°
2026-05-04 21:04 47.18435 -123.10537 25992 ft 419 kts 217°
2026-05-04 21:05 47.16044 -123.13035 26510 ft 422 kts 219°
2026-05-04 21:05 47.13685 -123.15628 27037 ft 425 kts 219°
2026-05-04 21:05 47.11304 -123.18241 27569 ft 429 kts 219°
2026-05-04 21:05 47.08891 -123.20858 28061 ft 433 kts 218°
2026-05-04 21:06 47.06449 -123.23493 28538 ft 436 kts 218°
2026-05-04 21:06 47.04032 -123.26105 28996 ft 439 kts 218°
2026-05-04 21:06 47.01565 -123.28768 29556 ft 440 kts 218°
2026-05-04 21:06 46.99093 -123.31434 29957 ft 444 kts 218°
2026-05-04 21:07 46.96602 -123.34118 30426 ft 445 kts 218°
2026-05-04 21:07 46.94078 -123.36836 30648 ft 451 kts 218°
2026-05-04 21:07 46.91415 -123.39286 31062 ft 454 kts 205°
2026-05-04 21:07 46.88382 -123.40617 31274 ft 460 kts 186°
2026-05-04 21:08 46.85200 -123.40516 31696 ft 457 kts 170°
2026-05-04 21:08 46.82072 -123.39872 31917 ft 463 kts 172°
2026-05-04 21:08 46.78853 -123.39620 32295 ft 465 kts 178°
2026-05-04 21:08 46.75614 -123.39639 32551 ft 469 kts 179°
2026-05-04 21:09 46.72333 -123.39616 32872 ft 471 kts 177°
2026-05-04 21:09 46.69059 -123.39505 33265 ft 470 kts 176°
2026-05-04 21:09 46.65783 -123.39380 33623 ft 471 kts 176°
2026-05-04 21:09 46.62511 -123.39280 33991 ft 471 kts 176°
2026-05-04 21:10 46.59231 -123.39188 34387 ft 469 kts 176°
2026-05-04 21:10 46.55962 -123.39092 34668 ft 469 kts 176°
2026-05-04 21:10 46.52693 -123.38992 34975 ft 470 kts 176°
2026-05-04 21:10 46.49422 -123.38892 35279 ft 470 kts 176°
2026-05-04 21:11 46.46190 -123.38796 35621 ft 470 kts 176°
2026-05-04 21:11 46.42906 -123.38698 35832 ft 472 kts 176°
2026-05-04 21:11 46.39626 -123.38601 36155 ft 471 kts 176°
2026-05-04 21:11 46.36342 -123.38503 36436 ft 472 kts 176°
2026-05-04 21:12 46.33057 -123.38405 36707 ft 472 kts 176°
2026-05-04 21:12 46.29762 -123.38306 36851 ft 476 kts 176°
2026-05-04 21:12 46.23090 -123.38106 36972 ft 486 kts 176°
2026-05-04 21:13 46.16249 -123.37899 37013 ft 496 kts 176°
2026-05-04 21:13 46.09327 -123.37697 36994 ft 498 kts 176°
2026-05-04 21:14 46.02388 -123.37493 36975 ft 499 kts 176°
2026-05-04 21:14 45.95453 -123.37290 36983 ft 499 kts 176°
2026-05-04 21:15 45.88510 -123.37085 36975 ft 499 kts 176°
2026-05-04 21:15 45.81630 -123.36884 36973 ft 497 kts 175°
2026-05-04 21:16 45.74694 -123.36681 36975 ft 498 kts 175°
2026-05-04 21:16 45.67753 -123.36481 36975 ft 499 kts 175°
2026-05-04 21:17 45.60823 -123.36280 36968 ft 498 kts 175°
2026-05-04 21:17 45.53879 -123.36078 36987 ft 498 kts 175°
2026-05-04 21:18 45.46989 -123.35881 36970 ft 497 kts 175°
2026-05-04 21:18 45.40068 -123.35680 36985 ft 497 kts 175°
2026-05-04 21:19 45.33143 -123.35481 36984 ft 497 kts 175°
2026-05-04 21:19 45.26215 -123.35282 36981 ft 498 kts 175°
2026-05-04 21:20 45.19282 -123.35085 36981 ft 498 kts 175°
2026-05-04 21:20 45.12366 -123.34887 36979 ft 496 kts 175°
2026-05-04 21:21 45.05492 -123.34692 36990 ft 497 kts 174°
2026-05-04 21:21 44.98581 -123.34496 36993 ft 497 kts 174°
2026-05-04 21:22 44.91654 -123.34301 36990 ft 496 kts 174°
2026-05-04 21:22 44.84737 -123.34104 37000 ft 497 kts 174°
2026-05-04 21:23 44.77872 -123.33911 36993 ft 495 kts 174°
2026-05-04 21:23 44.70971 -123.33717 37011 ft 495 kts 174°
2026-05-04 21:24 44.64080 -123.33523 37007 ft 495 kts 174°
2026-05-04 21:24 44.57176 -123.33331 37006 ft 495 kts 174°
2026-05-04 21:25 44.50285 -123.33121 37013 ft 495 kts 173°
2026-05-04 21:25 44.43390 -123.32820 37014 ft 500 kts 173°
2026-05-04 21:26 44.36416 -123.32479 37014 ft 503 kts 173°
2026-05-04 21:26 44.29405 -123.32147 37016 ft 504 kts 173°
2026-05-04 21:27 44.22394 -123.31813 37017 ft 504 kts 173°
2026-05-04 21:27 44.15380 -123.31501 37021 ft 504 kts 173°
2026-05-04 21:28 44.08419 -123.31224 37016 ft 503 kts 173°
2026-05-04 21:28 44.02564 -123.30992 37018 ft 502 kts 173°
2026-05-04 21:29 43.95617 -123.30716 37030 ft 502 kts 173°
2026-05-04 21:29 43.88616 -123.30439 37022 ft 502 kts 172°
2026-05-04 21:30 43.81636 -123.30164 37020 ft 502 kts 172°
2026-05-04 21:30 43.73511 -123.29844 37022 ft 501 kts 172°
2026-05-04 21:31 43.64187 -123.29478 37020 ft 501 kts 172°
2026-05-04 21:32 43.57257 -123.29207 37018 ft 501 kts 172°
2026-05-04 21:32 43.50291 -123.28935 37019 ft 500 kts 172°
2026-05-04 21:33 43.43345 -123.28665 37011 ft 499 kts 172°
2026-05-04 21:33 43.36398 -123.28395 37012 ft 498 kts 172°
2026-05-04 21:34 43.29499 -123.28127 37010 ft 498 kts 172°
2026-05-04 21:34 43.22581 -123.27860 37009 ft 497 kts 172°
2026-05-04 21:35 43.15663 -123.27592 37006 ft 497 kts 172°
2026-05-04 21:35 43.08741 -123.27326 37009 ft 497 kts 172°
2026-05-04 21:36 43.01848 -123.27063 36988 ft 495 kts 172°
2026-05-04 21:36 42.94997 -123.26799 36987 ft 495 kts 171°
2026-05-04 21:37 42.88102 -123.26535 36986 ft 495 kts 171°
2026-05-04 21:37 42.81235 -123.26274 36973 ft 494 kts 171°
2026-05-04 21:38 42.74354 -123.26011 36962 ft 494 kts 171°
2026-05-04 21:38 42.67482 -123.25750 36963 ft 494 kts 172°
2026-05-04 21:39 42.60622 -123.25490 36957 ft 493 kts 172°
2026-05-04 21:39 42.53805 -123.25232 36945 ft 492 kts 172°
2026-05-04 21:40 42.46954 -123.24977 36927 ft 492 kts 172°
2026-05-04 21:40 42.40119 -123.24725 36938 ft 490 kts 172°
2026-05-04 21:41 42.33295 -123.24473 36932 ft 490 kts 172°
2026-05-04 21:41 42.26462 -123.24219 36935 ft 491 kts 172°
2026-05-04 21:42 42.19629 -123.23968 36919 ft 490 kts 172°
2026-05-04 21:42 42.12852 -123.23720 36934 ft 490 kts 172°
2026-05-04 21:43 42.06011 -123.23470 36945 ft 490 kts 172°
2026-05-04 21:43 41.99194 -123.23222 36946 ft 490 kts 172°
2026-05-04 21:44 41.92381 -123.22974 36938 ft 489 kts 172°
2026-05-04 21:44 41.85620 -123.22725 36945 ft 487 kts 172°
2026-05-04 21:45 41.78824 -123.22480 36948 ft 489 kts 172°
2026-05-04 21:45 41.72017 -123.22232 36963 ft 489 kts 172°
2026-05-04 21:46 41.65223 -123.21988 36962 ft 489 kts 172°
2026-05-04 21:46 41.58463 -123.21749 36945 ft 485 kts 172°
2026-05-04 21:47 41.51694 -123.21514 36987 ft 487 kts 172°
2026-05-04 21:47 41.44907 -123.21281 36991 ft 489 kts 172°
2026-05-04 21:48 41.38105 -123.21044 36995 ft 488 kts 172°
2026-05-04 21:48 41.31300 -123.20834 36995 ft 489 kts 172°
2026-05-04 21:49 41.24492 -123.20658 37019 ft 489 kts 173°
2026-05-04 21:49 41.17704 -123.20485 37016 ft 488 kts 173°
2026-05-04 21:50 41.10949 -123.20315 37027 ft 489 kts 173°
2026-05-04 21:50 41.04146 -123.20144 37009 ft 490 kts 173°
2026-05-04 21:51 40.97312 -123.19972 37007 ft 489 kts 173°
2026-05-04 21:51 40.90543 -123.19800 36987 ft 489 kts 173°
2026-05-04 21:52 40.83741 -123.19632 36976 ft 488 kts 173°
2026-05-04 21:52 40.76949 -123.19459 36994 ft 488 kts 173°
2026-05-04 21:53 40.70156 -123.19289 36975 ft 488 kts 173°
2026-05-04 21:53 40.63361 -123.19120 36984 ft 487 kts 173°
2026-05-04 21:54 40.56620 -123.18953 36972 ft 487 kts 173°
2026-05-04 21:54 40.49843 -123.18783 36987 ft 487 kts 173°
2026-05-04 21:55 40.43077 -123.18618 36986 ft 485 kts 174°
2026-05-04 21:55 40.36325 -123.18447 36994 ft 485 kts 174°
2026-05-04 21:56 40.29576 -123.18283 37006 ft 485 kts 174°
2026-05-04 21:56 40.22828 -123.18116 37000 ft 485 kts 174°
2026-05-04 21:57 40.16084 -123.17949 37011 ft 485 kts 174°
2026-05-04 21:57 40.09328 -123.17784 37019 ft 485 kts 174°
2026-05-04 21:58 40.02585 -123.17618 37015 ft 484 kts 174°
2026-05-04 21:58 39.95875 -123.17433 37010 ft 477 kts 173°
2026-05-04 21:59 39.89296 -123.17158 37024 ft 473 kts 173°
2026-05-04 21:59 39.82721 -123.16843 37023 ft 472 kts 173°
2026-05-04 22:00 39.76161 -123.16541 37039 ft 471 kts 173°
2026-05-04 22:00 39.72950 -123.15919 37039 ft 463 kts 160°
2026-05-04 22:00 39.69779 -123.15071 37027 ft 469 kts 168°
2026-05-04 22:01 39.63190 -123.15005 37035 ft 475 kts 178°
2026-05-04 22:01 39.56616 -123.15428 37029 ft 475 kts 178°
2026-05-04 22:02 39.50019 -123.15853 37032 ft 474 kts 179°
2026-05-04 22:02 39.43434 -123.16258 37040 ft 473 kts 178°